Location: Bruch
(44.2051°N, 0.4120°E)
Time: 14:34:24
(UTC+00:00)

Meteor 1-31 Rocket - Visible Passes

Search period start: 12 April 2021 00:00
Search period end: 22 April 2021 00:00
Orbit: 519 x 547 km, 97.7° (Epoch: 11 April)

Date Brightness Start Highest point End Pass type
(mag) Time Alt. Az. Time Alt. Az. Time Alt. Az.
14 Apr 3.6 04:44:41 10° NNE 04:48:25 53° E 04:52:09 10° S visible
15 Apr 4.2 04:35:18 10° NNE 04:38:55 40° E 04:42:31 10° S visible
16 Apr 4.7 04:25:57 10° NNE 04:29:24 31° E 04:32:49 10° SSE visible
17 Apr 5.2 04:16:40 10° NE 04:19:51 24° E 04:23:01 10° SSE visible
18 Apr 5.6 04:07:29 10° NE 04:10:18 19° E 04:13:06 10° SE visible
19 Apr 5.7 03:58:26 10° NE 04:00:44 15° E 04:03:01 10° SE visible
20 Apr 5.9 03:49:40 10° ENE 03:51:09 12° E 03:52:38 10° ESE visible
